Regional Weather Roundup
Issued by NWS

Home | Current Version | Previous Version | Graphics & Text | Print | Product List | Glossary On
Versions: 1 2 3 4 5 6 7 8 9 10 11 12 13 14 15 16 17 18 19 20 21 22 23 24 25 26 27 28 29 30 31 32 33 34 35 36 37 38 39 40 41 42 43 44 45 46 47 48 49 50
478
ASUS45 KPSR 211610
RWRAZ

ARIZONA HOURLY REGIONAL WEATHER ROUNDUP
NATIONAL WEATHER SERVICE PHOENIX AZ
900 AM MST TUE FEB 21 2017

NOTE: FAIR INDICATES FEW OR NO CLOUDS BELOW 12,000 FEET WITH NO
SIGNIFICANT WEATHER AND/OR OBSTRUCTIONS TO VISIBILITY.

AZZ001>003-036-211700-
NORTHWEST ARIZONA

CITY           SKY/WX    TMP DP  RH WIND       PRES   REMARKS
BULLHEAD CITY  PTSUNNY   59  54  82 S5        30.32R
KINGMAN        PTSUNNY   52  41  66 SE3       30.35R
$$

AZZ004>008-015-016-018-211700-
NORTH CENTRAL ARIZONA

CITY           SKY/WX    TMP DP  RH WIND       PRES   REMARKS
GRAND CANYON   MOSUNNY   40  38  93 CALM      30.41R
WILLIAMS       SUNNY     46  39  76 VRB3      30.42R
PRESCOTT       SUNNY     46  41  82 CALM      30.39R
FLAGSTAFF      SUNNY     46  40  79 W3        30.43R
PAYSON         SUNNY     54  43  66 CALM      30.41R
PAGE           SUNNY     50  37  61 NE3       30.31S
$$

AZZ009>014-017-211700-
NORTHEAST ARIZONA

CITY           SKY/WX    TMP DP  RH WIND       PRES   REMARKS
WINSLOW        SUNNY     44  36  73 SE9       30.40R
SAINT JOHNS    SUNNY     42  32  67 CALM      30.41R
WINDOW ROCK    SUNNY     38  31  76 CALM      30.43S
SHOW LOW       SUNNY     45  36  70 CALM      30.44R
$$

AZZ023-211700-
GREATER PHOENIX AREA

CITY           SKY/WX    TMP DP  RH WIND       PRES   REMARKS
PHOENIX        MOSUNNY   57  49  74 E7        30.30R
BUCKEYE        SUNNY     54  54 100 S3        30.32R
GLENDALE       MOSUNNY   57  57 100 CALM      30.33R
LUKE AFB       SUNNY     56  52  86 NE3       30.31R
DEER VALLEY    SUNNY     58  50  75 CALM      30.31R
SCOTTSDALE     SUNNY     59  49  69 CALM      30.31R
MESA-GATEWAY   SUNNY     54  48  82 E5        30.33R
CHANDLER       SUNNY     55  50  82 CALM      30.32R
$$

AZZ027-028-211700-
SOUTHWEST MARICOPA COUNTY AND PINAL COUNTY

CITY           SKY/WX    TMP DP  RH WIND       PRES   REMARKS
CASA GRANDE    NOT AVBL
GILA BEND      MOSUNNY   58  51  79 CALM      30.30R
$$

AZZ503-504-507>509-211700-
SOUTHEAST ARIZONA

CITY           SKY/WX    TMP DP  RH WIND       PRES   REMARKS
TUCSON         SUNNY     51  43  74 S7        30.34R
DAVIS-MONTHAN  SUNNY     54  45  70 CALM      30.33R
NOGALES        SUNNY     49  41  74 CALM      30.35R
SIERRA VISTA   SUNNY     59  37  44 CALM      30.38R
DOUGLAS        SUNNY     47  41  80 NW3       30.37R
SAFFORD        SUNNY     52  43  71 CALM      30.34S
$$

AZZ020-021-025-026-031-211700-
SOUTHWEST ARIZONA

CITY           SKY/WX    TMP DP  RH WIND       PRES   REMARKS
YUMA           MOSUNNY   60  53  77 N7        30.29R
$$

CAZ031-033-041-043-047-048-061-211700-
SOUTHERN CALIFORNIA

CITY           SKY/WX    TMP DP  RH WIND       PRES   REMARKS
DOWNTOWN L.A.  CLOUDY    61  56  83 CALM      30.30R
L.A. AIRPORT   LGT RAIN  59  57  93 CALM      30.32R
SAN DIEGO      PTSUNNY   59  52  77 CALM      30.32R
BURBANK        LGT RAIN  57  54  89 CALM      30.31R
ONTARIO        CLOUDY    58  54  86 CALM      30.31R
RIVERSIDE      CLOUDY    58  56  93 CALM      30.31R
PALM SPRINGS   MOSUNNY   62  55  77 N6        30.31R
EL CENTRO NAS  PTSUNNY   56  51  84 W5        30.31R
IMPERIAL       PTSUNNY   56  54  93 CALM      30.28R
BLYTHE         MOSUNNY   57  56  96 CALM      30.30R
NEEDLES        PTSUNNY   58  52  80 CALM      30.32R
$$

NVZ020-UTZ003-211700-
SOUTHERN NEVADA-UTAH

CITY           SKY/WX    TMP DP  RH WIND       PRES   REMARKS
LAS VEGAS      CLOUDY    63  36  36 S9G17     30.21R
SALT LAKE CITY MOSUNNY   54  38  54 S24G37    30.04S
$$

NMZ009-TXZ055-211700-
NEW MEXICO-WEST TEXAS

CITY           SKY/WX    TMP DP  RH WIND       PRES   REMARKS
ALBUQUERQUE    SUNNY     49  32  52 NW12      30.36F
EL PASO        SUNNY     50  33  52 CALM      30.33R
$$


........................KEY........................
SKY/WX - SKY CONDITION/WEATHER
TMP    - TEMPERATURE IN FAHRENHEIT
DP     - DEW POINT IN FAHRENHEIT
RH     - RELATIVE HUMIDITY IN PERCENT
WIND   - DIRECTION AND SPEED IN MILES PER HOUR (MPH)
VRB    - VARIABLE WIND DIRECTION
PRES   - MEAN SEA LEVEL PRESSURE IN INCHES OF MERCURY
         F - FALLING PRESSURE   R - RISING PRESSURE
         S - STEADY PRESSURE
VSB    - VISIBILITY IN MILES
HX     - HEAT INDEX IN FAHRENHEIT
WCI    - WIND CHILL INDEX IN FAHRENHEIT
TC     - TEMPERATURE IN CELSIUS WHICH IS ALSO KNOWN AS
         TEMPERATURE IN CENTIGRADE
AFB    - AIR FORCE BASE
         LUKE AFB IS LUKE AIR FORCE BASE
         DAVIS-MONTHAN IS DAVIS-MONTHAN AIR FORCE BASE
NAS    - NAVAL AIR STATION
         EL CENTRO NAS IS EL CENTRO NAVAL AIR STATION
N/A    - NOT AVAILABLE





USA.gov is the U.S. government's official web portal to all federal, state and local government web resources and services.